CW3868 Weather Reports


Display with metric or nautical units.
time (UTC)temp
F
wind
direction
speed
MPH
gust
MPH
rain 1hr
in
rain 24hr
in
rain mn
in
humidity
%
barometer
mb
20200223113803 22 268 0.0 1.0 0.00 0.00 0.00 88 1021.2
20200223112804 22 268 0.0 0.0 0.00 0.00 0.00 88 1021.2
20200223111803 22 268 0.0 0.0 0.00 0.00 0.00 88 1021.1
20200223110804 22 268 0.0 0.0 0.00 0.00 0.00 88 1021.2
20200223105803 22 268 0.0 0.0 0.00 0.00 0.00 87 1021.2
20200223104804 22 268 0.0 0.0 0.00 0.00 0.00 87 1021.2
20200223103804 23 268 0.0 1.0 0.00 0.00 0.00 87 1021.1
20200223102803 23 267 1.0 2.0 0.00 0.00 0.00 87 1020.9
20200223101803 23 268 0.0 0.0 0.00 0.00 0.00 87 1020.9
20200223100804 23 268 0.0 1.0 0.00 0.00 0.00 87 1020.9
20200223095803 23 268 0.0 0.0 0.00 0.00 0.00 87 1020.8
20200223094804 23 268 0.0 0.0 0.00 0.00 0.00 86 1020.8
20200223093804 23 267 0.0 1.0 0.00 0.00 0.00 86 1020.7
20200223092803 23 268 0.0 0.0 0.00 0.00 0.00 85 1020.7
20200223091804 24 268 0.0 0.0 0.00 0.00 0.00 86 1020.7
20200223090803 24 268 0.0 1.0 0.00 0.00 0.00 85 1020.7
20200223085804 24 268 0.0 0.0 0.00 0.00 0.00 84 1020.6
20200223084803 24 268 0.0 0.0 0.00 0.00 0.00 84 1020.4
20200223083803 24 268 0.0 0.0 0.00 0.00 0.00 83 1020.3
20200223082804 24 268 0.0 0.0 0.00 0.00 0.00 83 1020.3
20200223081804 24 268 0.0 0.0 0.00 0.00 0.00 83 1020.3
20200223080804 25 268 0.0 0.0 0.00 0.00 0.00 82 1020.2
20200223075804 25 268 0.0 0.0 0.00 0.00 0.00 81 1020.2
20200223074803 25 268 0.0 2.0 0.00 0.00 0.00 81 1020.2
20200223073804 25 268 0.0 1.0 0.00 0.00 0.00 81 1020.3
20200223072804 25 267 0.0 2.0 0.00 0.00 0.00 81 1020.2
20200223071803 25 267 1.0 2.0 0.00 0.00 0.00 81 1020.3
20200223070804 25 267 1.0 2.0 0.00 0.00 0.00 80 1020.3
20200223065803 26 268 0.0 0.0 0.00 0.00 0.00 79 1020.4
20200223064803 26 268 0.0 0.0 0.00 0.00 0.00 79 1020.5
20200223063803 26 268 0.0 1.0 0.00 0.00 0.00 79 1020.5
20200223062804 26 267 1.0 2.0 0.00 0.00 0.00 78 1020.5
20200223061804 27 268 0.0 2.0 0.00 0.00 0.00 77 1020.4
20200223060803 27 268 0.0 0.0 0.00 0.00 0.00 77 1020.5
20200223055804 27 267 0.0 2.0 0.00 0.00 0.00 77 1020.6
20200223054804 27 268 0.0 1.0 0.00 0.00 0.00 76 1020.5
20200223053803 28 267 1.0 2.0 0.00 0.00 0.00 76 1020.4
20200223052804 28 267 1.0 2.0 0.00 0.00 0.00 75 1020.5
20200223051803 28 267 1.0 2.0 0.00 0.00 0.00 75 1020.6
20200223050804 28 268 0.0 0.0 0.00 0.00 0.00 74 1020.6
20200223045804 29 268 0.0 1.0 0.00 0.00 0.00 74 1020.6
20200223044803 29 267 1.0 2.0 0.00 0.00 0.00 74 1020.6
20200223043803 28 267 1.0 2.0 0.00 0.00 0.00 74 1020.5
20200223042803 29 268 0.0 0.0 0.00 0.00 0.00 73 1020.5
20200223041804 29 268 0.0 2.0 0.00 0.00 0.00 72 1020.6
20200223040803 30 267 1.0 2.0 0.00 0.00 0.00 71 1020.6
20200223035803 30 268 0.0 2.0 0.00 0.00 0.00 69 1020.7
20200223034804 31 268 0.0 2.0 0.00 0.00 0.00 67 1020.6
20200223033803 31 267 0.0 3.0 0.00 0.00 0.00 66 1020.6
20200223032804 32 267 1.0 2.0 0.00 0.00 0.00 65 1020.6
20200223031804 32 268 0.0 1.0 0.00 0.00 0.00 62 1020.6
20200223030804 33 267 0.0 2.0 0.00 0.00 0.00 62 1020.6
20200223025803 33 267 1.0 7.0 0.00 0.00 0.00 62 1020.6
20200223024804 33 269 2.0 6.0 0.00 0.00 0.00 61 1020.7
20200223023803 33 288 3.0 7.0 0.00 0.00 0.00 61 1020.7
20200223022804 34 264 3.0 7.0 0.00 0.00 0.00 61 1020.8
20200223021803 34 241 2.0 5.0 0.00 0.00 0.00 60 1020.9
20200223020805 34 233 3.0 5.0 0.00 0.00 0.00 58 1020.9
20200223015803 35 230 2.0 4.0 0.00 0.00 0.00 57 1020.9
20200223014803 35 233 2.0 5.0 0.00 0.00 0.00 57 1020.9
20200223013804 35 232 3.0 4.0 0.00 0.00 0.00 57 1020.8
20200223012803 35 232 2.0 3.0 0.00 0.00 0.00 56 1020.8
20200223011803 36 266 2.0 4.0 0.00 0.00 0.00 56 1020.8
20200223010803 36 266 1.0 4.0 0.00 0.00 0.00 54 1020.8
20200223005803 36 285 3.0 7.0 0.00 0.00 0.00 53 1020.7
20200223004803 37 280 4.0 7.0 0.00 0.00 0.00 53 1020.6
20200223003803 37 274 4.0 9.0 0.00 0.00 0.00 52 1020.5
20200223002825 37 249 3.0 9.0 0.00 0.00 0.00 52 1020.5
20200223001824 37 251 5.0 9.0 0.00 0.00 0.00 52 1020.5
20200223000803 38 253 2.0 9.0 0.00 0.00 0.00 51 1020.5
20200222235804 38 261 3.0 8.0 0.00 0.00 0.00 50 1020.4
20200222234803 38 268 3.0 10.0 0.00 0.00 0.00 50 1020.2
20200222233804 38 278 6.0 10.0 0.00 0.00 0.00 49 1020.1
20200222232803 38 273 4.0 11.0 0.00 0.00 0.00 49 1020.0
20200222231803 39 279 5.0 9.0 0.00 0.00 0.00 49 1019.8
20200222230804 39 272 3.0 8.0 0.00 0.00 0.00 48 1019.6
20200222225805 39 281 5.0 11.0 0.00 0.00 0.00 48 1019.3
20200222224804 40 274 6.0 9.0 0.00 0.00 0.00 47 1019.2
20200222223803 40 282 5.0 12.0 0.00 0.00 0.00 46 1019.1
20200222222803 41 290 7.0 13.0 0.00 0.00 0.00 45 1019.0
20200222221804 41 283 6.0 12.0 0.00 0.00 0.00 43 1019.0
20200222220803 42 273 3.0 10.0 0.00 0.00 0.00 43 1018.9
20200222215804 42 266 5.0 12.0 0.00 0.00 0.00 42 1018.8
20200222214804 43 288 5.0 12.0 0.00 0.00 0.00 42 1018.7
20200222213803 43 268 3.0 12.0 0.00 0.00 0.00 41 1018.5
20200222212804 43 267 7.0 13.0 0.00 0.00 0.00 40 1018.4
20200222211803 43 283 6.0 16.0 0.00 0.00 0.00 41 1018.3
20200222210804 43 271 10.0 17.0 0.00 0.00 0.00 40 1018.3
20200222205804 44 279 7.0 17.0 0.00 0.00 0.00 40 1018.3
20200222204803 44 284 8.0 19.0 0.00 0.00 0.00 40 1018.4
20200222203804 44 260 6.0 14.0 0.00 0.00 0.00 40 1018.3
20200222202803 44 265 9.0 16.0 0.00 0.00 0.00 40 1018.3
20200222201803 44 289 6.0 16.0 0.00 0.00 0.00 39 1018.2
20200222200804 44 283 11.0 17.0 0.00 0.00 0.00 39 1017.9
20200222195803 44 253 8.0 16.0 0.00 0.00 0.00 39 1017.9
20200222194804 44 248 8.0 14.0 0.00 0.00 0.00 39 1018.0
20200222193803 44 260 9.0 18.0 0.00 0.00 0.00 39 1018.1
20200222192803 44 283 11.0 15.0 0.00 0.00 0.00 38 1018.1
20200222191804 44 269 10.0 15.0 0.00 0.00 0.00 38 1018.1
20200222190803 44 287 7.0 15.0 0.00 0.00 0.00 38 1018.0
20200222185804 44 275 12.0 16.0 0.00 0.00 0.00 37 1018.0
20200222184803 44 268 10.0 16.0 0.00 0.00 0.00 38 1018.2
20200222183803 43 302 8.0 17.0 0.00 0.00 0.00 38 1018.3
20200222182804 43 281 8.0 13.0 0.00 0.00 0.00 37 1018.3
20200222181803 43 272 10.0 18.0 0.00 0.00 0.00 37 1018.4
20200222180804 43 285 7.0 13.0 0.00 0.00 0.00 38 1018.5
20200222175803 43 294 7.0 17.0 0.00 0.00 0.00 38 1018.7
20200222174804 42 232 10.0 14.0 0.00 0.00 0.00 38 1018.8
20200222173804 42 298 7.0 16.0 0.00 0.00 0.00 40 1018.9
20200222171804 41 281 11.0 15.0 0.00 0.00 0.00 39 1019.3
20200222170803 41 282 10.0 16.0 0.00 0.00 0.00 39 1019.6
20200222165804 41 257 9.0 14.0 0.00 0.00 0.00 40 1019.7
20200222164803 40 289 7.0 14.0 0.00 0.00 0.00 40 1020.0
20200222163803 40 275 10.0 16.0 0.00 0.00 0.00 40 1020.2
20200222162804 39 287 8.0 15.0 0.00 0.00 0.00 40 1020.3
20200222161803 39 241 5.0 14.0 0.00 0.00 0.00 40 1020.5
20200222160804 38 255 7.0 13.0 0.00 0.00 0.00 39 1020.6
20200222155803 38 280 8.0 13.0 0.00 0.00 0.00 40 1020.8
20200222154804 38 245 6.0 11.0 0.00 0.00 0.00 41 1021.0
20200222153803 37 292 7.0 12.0 0.00 0.00 0.00 40 1021.0
20200222152803 36 276 6.0 12.0 0.00 0.00 0.00 42 1021.1
20200222151803 36 258 6.0 13.0 0.00 0.00 0.00 41 1021.3
20200222150803 35 278 8.0 16.0 0.00 0.00 0.00 41 1021.4
20200222145804 35 248 9.0 13.0 0.00 0.00 0.00 42 1021.5
20200222144804 34 255 7.0 14.0 0.00 0.00 0.00 41 1021.6
20200222143804 34 276 7.0 15.0 0.00 0.00 0.00 42 1021.7
20200222142803 33 244 8.0 18.0 0.00 0.00 0.00 41 1021.5
20200222141803 33 250 8.0 13.0 0.00 0.00 0.00 43 1021.6
20200222140803 32 239 6.0 13.0 0.00 0.00 0.00 42 1021.7
20200222135803 32 244 7.0 12.0 0.00 0.00 0.00 43 1021.9
20200222134804 31 247 6.0 13.0 0.00 0.00 0.00 44 1021.9
20200222133803 30 258 7.0 12.0 0.00 0.00 0.00 46 1022.1
20200222132803 29 240 5.0 9.0 0.00 0.00 0.00 49 1022.2
20200222131804 28 240 4.0 8.0 0.00 0.00 0.00 50 1022.3
20200222130803 27 234 5.0 9.0 0.00 0.00 0.00 51 1022.2
20200222125804 26 236 5.0 9.0 0.00 0.00 0.00 52 1022.2
20200222124803 25 228 5.0 8.0 0.00 0.00 0.00 52 1022.1
20200222123804 25 238 3.0 5.0 0.00 0.00 0.00 53 1022.2
20200222122803 25 232 3.0 6.0 0.00 0.00 0.00 53 1022.1
20200222121803 24 230 3.0 7.0 0.00 0.00 0.00 55 1022.0
20200222120804 23 236 2.0 7.0 0.00 0.00 0.00 55 1022.0
20200222115803 23 224 2.0 5.0 0.00 0.00 0.00 55 1021.9
20200222114804 23 212 2.0 4.0 0.00 0.00 0.00 54 1021.7